Tracking 30109 objects as of 12-Dec-2024
HD Live streaming from Space Station
objects crossing your sky now

STARLINK-6157

Track STARLINK-6157 now!
10-day predictions
STARLINK-6157 is classified as:


NORAD ID: 56379
Int'l Code: 2023-061F
Perigee: 565.3 km
Apogee: 567.1 km
Inclination: 43.0 °
Period: 95.8 minutes
Semi major axis: 6937 km
RCS: Unknown
Launch date: May 4, 2023
Source: United States (US)
Launch site: AIR FORCE EASTERN TEST RANGE (AFETR)
Your satellite tracking list
Your tracking list is empty




NASA's NSSDC Master Catalog

Two Line Element Set (TLE):
1 56379U 23061F   24346.49981574  .00000368  00000-0  42308-4 0  9996
2 56379  43.0033 139.9328 0001280 267.2348  92.8348 15.02534539 89685
Source of the keplerian elements: AFSPC